Theta_e
326 326 326 326 327 327 327 326 325 325 324 323 322 319 317 315 312 309 308 310 309 308 306 307 307 308 308 307 306 305 304 303 302 301 299 299 299 304 312 314 315 316 318 321 322 323 323 323 323 323 324 324 324 324 325 325 325 325 326 326 328 330 329 330 329 328 326 324 323 322 321 322 321 321 321 322 321 321 322 323 323 324 324 322 322
323 322 322 321 321 321 321 321 321 322 322 320 319 319 318 316 314 312 311 311 311 310 309 308 308 308 308 308 306 305 303 301 300 299 298 298 298 299 307 310 311 314 316 317 320 321 322 321 322 323 324 325 324 325 324 322 323 324 325 325 326 326 326 327 328 329 328 325 323 323 321 321 321 321 321 321 321 321 321 321 322 322 322 322 322
320 319 319 318 318 318 318 319 319 320 320 319 318 318 316 315 314 312 309 307 306 307 308 306 306 306 307 306 305 303 301 299 298 298 297 297 297 297 299 305 307 309 311 315 317 319 319 320 321 323 324 325 325 325 324 322 323 323 323 324 325 327 326 325 325 326 328 327 327 326 324 323 322 322 321 321 321 321 321 321 320 320 320 320 321
317 316 316 315 314 314 315 316 315 315 315 314 313 312 310 309 308 307 304 303 301 301 302 302 302 303 304 303 301 300 298 297 297 297 297 296 296 296 297 298 302 304 306 309 314 315 316 317 319 320 322 323 324 324 324 323 322 323 324 323 323 323 324 325 324 325 325 326 327 327 326 326 324 322 322 321 321 321 321 321 320 320 320 319 319
314 313 312 313 312 312 312 312 313 312 311 310 309 309 308 307 303 303 302 301 300 300 301 300 300 300 301 301 298 297 297 296 296 296 296 296 296 296 295 295 294 299 300 302 306 310 313 314 315 318 319 320 322 322 322 322 322 323 323 323 323 323 322 322 321 321 322 323 323 323 325 327 326 326 324 323 323 322 322 321 321 321 321 321 321
311 310 310 309 309 309 309 310 311 310 308 307 305 305 304 303 301 300 300 299 298 298 298 298 298 299 299 299 297 296 296 295 295 295 295 294 294 294 294 293 292 291 291 297 300 305 308 310 312 315 316 317 318 319 319 321 322 322 322 322 322 322 322 322 321 321 321 320 320 321 322 323 324 325 325 325 324 323 323 322 321 320 320 320 320
307 307 306 306 305 305 305 306 307 307 304 303 301 300 299 297 298 297 297 297 296 296 296 296 297 298 298 297 296 295 294 293 293 293 293 293 293 293 293 293 292 291 290 288 293 298 303 306 308 310 314 315 315 315 318 320 320 320 321 321 322 321 321 320 321 320 321 320 320 320 321 321 322 323 324 324 324 325 325 325 325 322 321 321 320
305 305 304 304 303 303 303 303 303 303 302 300 298 296 295 295 295 295 295 294 294 294 294 295 297 297 296 295 295 294 292 292 292 292 291 292 291 291 292 292 292 291 292 288 287 291 298 302 304 306 308 310 313 312 313 316 315 317 319 321 321 321 321 320 321 321 320 318 318 318 318 319 319 320 322 323 323 323 324 324 325 325 325 325 323
303 303 302 301 301 301 302 302 302 301 300 298 297 296 294 294 292 293 293 291 292 292 294 295 296 295 294 294 294 294 292 291 290 290 291 290 290 290 290 290 291 294 289 288 287 287 292 297 300 301 301 305 308 311 311 312 314 314 316 317 318 319 318 317 318 317 317 317 317 317 318 318 318 318 319 320 321 323 323 323 323 324 324 325 325
301 301 300 299 298 298 298 299 300 300 299 297 296 295 293 291 290 289 289 289 290 291 293 295 295 294 293 293 293 293 292 291 290 289 288 287 287 288 288 288 288 288 289 288 287 287 287 290 295 296 297 301 304 307 310 309 312 312 313 314 315 315 313 312 312 311 311 311 312 312 313 314 315 317 317 317 318 319 320 322 322 323 324 325 325
298 298 297 296 296 296 296 296 297 297 296 296 295 294 292 290 288 287 288 287 287 289 292 293 293 292 293 293 293 293 292 292 290 288 287 286 287 288 288 287 287 286 287 288 287 287 286 286 286 287 288 297 301 304 306 307 308 309 309 311 312 314 313 312 312 311 311 311 311 311 311 311 311 312 313 315 317 317 317 318 320 322 322 323 324
295 295 295 294 294 294 293 293 293 294 293 291 290 290 290 288 287 286 286 287 287 287 288 292 291 291 291 290 291 291 291 291 290 289 288 286 285 285 285 285 286 286 285 286 287 286 286 286 287 286 287 291 297 299 302 304 303 306 306 308 310 312 312 312 312 311 310 311 311 311 311 311 312 312 311 311 312 314 316 317 317 318 319 320 322
293 293 292 292 292 292 291 290 290 289 288 287 287 287 288 287 286 287 286 286 285 285 285 288 291 289 289 288 288 289 290 288 287 287 287 286 285 285 284 285 285 286 284 285 286 286 286 285 285 286 286 286 288 293 296 299 299 304 305 306 309 312 311 311 311 311 310 310 311 311 310 310 310 311 312 312 311 311 312 314 316 318 317 317 317
291 291 290 290 290 289 288 287 287 287 287 287 286 287 286 285 285 285 285 285 283 284 285 286 287 287 287 287 287 287 288 287 286 285 285 285 285 284 284 284 284 285 284 284 284 285 285 285 285 285 286 286 286 286 288 289 292 301 303 303 308 311 311 311 311 311 310 310 310 310 310 310 310 311 311 312 312 312 312 311 311 313 315 317 317
290 289 289 288 287 287 286 286 286 287 286 285 285 285 284 284 284 283 283 283 284 285 284 284 284 284 285 285 283 285 287 284 285 285 284 283 284 283 284 283 283 283 283 283 283 283 284 284 284 284 285 285 286 286 286 289 291 297 299 300 302 307 309 310 311 312 309 309 309 310 309 309 310 310 311 312 312 313 312 313 312 311 311 313 316
287 286 286 286 286 286 286 286 286 286 286 285 285 284 284 284 283 284 282 282 282 283 284 284 283 284 282 283 282 280 277 279 281 282 281 282 283 282 283 282 282 282 283 282 282 282 282 283 283 283 284 285 285 286 286 286 291 294 295 297 300 305 307 309 309 309 309 309 308 308 308 308 309 309 310 311 312 313 313 313 312 312 312 311 311
286 286 286 285 285 286 286 285 285 285 286 285 284 284 283 283 283 283 282 282 281 281 283 284 283 284 282 280 279 278 279 279 278 277 279 281 281 281 283 281 281 282 281 281 281 282 282 282 282 283 283 284 285 285 285 285 287 289 290 295 299 300 301 306 307 307 307 307 307 306 306 307 307 309 310 311 312 313 313 313 312 312 312 312 312
285 285 286 286 285 285 285 285 285 285 285 284 284 284 283 283 283 283 282 282 282 281 280 283 283 283 282 282 281 278 279 279 276 275 277 279 279 280 279 280 280 280 280 280 280 281 282 281 281 282 283 283 284 285 284 285 288 287 290 293 299 300 300 301 304 305 305 307 307 306 306 306 307 308 308 310 311 311 312 312 312 312 312 312 312
284 284 285 285 285 285 285 284 284 284 284 284 283 283 283 283 283 283 283 284 281 280 280 280 280 282 282 281 282 281 279 275 277 276 273 276 277 279 278 280 280 279 280 280 280 280 280 281 280 281 282 283 284 284 284 284 287 289 293 296 299 299 298 298 299 301 303 304 305 306 306 306 306 307 308 309 310 310 310 311 311 312 312 312 313
284 284 284 284 284 284 284 284 283 283 284 283 282 282 283 283 283 282 282 282 281 281 279 279 279 279 281 280 280 279 278 278 277 277 277 275 275 276 276 279 278 279 279 279 279 280 280 280 280 281 281 281 282 283 283 283 283 283 287 295 298 299 298 298 298 298 298 300 303 304 305 306 306 306 308 309 309 309 310 310 310 311 311 311 312
283 283 283 284 284 283 283 283 283 283 283 283 282 282 281 281 281 282 282 281 281 281 280 278 279 278 278 278 278 277 277 277 277 277 276 275 274 274 276 278 278 276 278 277 279 280 280 279 280 281 281 281 281 282 282 282 282 283 289 294 297 299 298 297 297 296 296 297 299 301 303 305 306 308 308 308 308 308 309 309 310 310 311 311 311
283 283 283 283 283 283 283 282 282 282 283 282 282 281 281 281 281 281 281 281 280 280 280 279 279 278 278 278 278 277 277 277 277 275 274 275 275 274 275 275 274 276 278 276 278 279 279 279 279 279 280 280 281 281 281 281 282 283 287 290 293 295 296 296 296 296 296 296 297 298 301 303 305 306 306 307 307 307 307 308 308 309 309 310 310
282 282 282 282 282 283 282 282 282 283 282 281 281 281 281 281 281 280 280 280 280 280 280 279 279 279 278 278 278 278 278 276 276 276 275 274 274 274 275 275 275 274 275 277 279 278 277 278 277 278 279 279 280 281 280 281 285 286 287 288 289 291 293 295 295 294 295 295 296 297 298 298 299 300 302 303 304 306 307 307 307 307 308 308 309
281 281 281 281 282 281 281 281 281 281 281 281 281 280 280 280 280 280 279 279 279 279 278 278 278 278 277 277 278 278 278 277 277 277 277 276 276 274 274 275 274 274 277 277 277 275 278 278 277 277 278 279 280 281 280 281 281 285 284 286 288 290 292 293 293 293 293 294 294 295 296 296 297 297 299 301 304 306 306 306 306 306 307 307 307
280 280 280 280 281 281 281 281 281 281 280 280 280 280 280 279 279 279 278 278 278 278 278 277 278 277 276 277 277 277 277 277 277 277 276 276 276 273 274 275 273 274 275 275 275 277 278 276 276 277 277 278 280 279 280 280 279 283 285 284 286 286 287 288 289 291 292 292 293 294 294 295 296 297 299 301 302 304 304 304 305 305 306 306 307
280 280 280 280 280 280 280 280 280 280 280 279 279 279 279 279 278 278 278 277 278 277 277 277 277 276 277 276 276 276 276 277 276 277 277 276 274 274 274 274 274 274 275 273 274 275 274 275 277 276 277 277 277 278 278 279 279 283 285 282 281 284 285 286 288 290 291 292 292 292 292 293 295 296 296 298 299 300 302 302 303 304 304 305 306
280 280 280 280 280 279 279 279 279 279 279 279 280 279 278 278 278 278 277 277 277 278 277 277 278 276 276 276 278 277 276 276 276 277 277 277 276 275 275 272 272 273 272 274 274 274 275 275 275 277 277 278 277 278 278 278 280 284 283 279 278 281 283 286 288 290 291 291 291 291 291 291 291 293 293 293 294 295 298 299 301 302 302 302 303
280 280 279 280 279 279 279 279 278 278 278 278 278 278 277 277 277 277 277 278 277 277 276 276 276 276 276 276 277 276 276 277 277 276 276 277 277 276 275 274 273 270 273 271 273 272 274 274 274 274 275 276 277 277 280 279 278 283 281 278 277 278 281 285 288 289 289 289 290 290 290 290 291 291 292 293 293 293 294 295 297 297 298 298 299
280 280 279 279 279 279 278 278 278 278 278 278 278 277 277 277 276 276 276 276 276 276 276 276 276 276 276 276 276 277 276 276 276 277 276 276 276 275 275 274 274 271 270 270 272 271 273 275 274 274 276 277 276 277 277 277 280 280 278 277 276 276 280 285 287 288 288 289 289 289 289 290 290 291 291 292 293 294 295 295 295 296 296 296 297
281 280 279 279 278 279 278 277 277 277 277 277 277 277 277 276 276 276 276 275 275 275 276 276 276 276 276 275 275 276 275 275 275 275 275 275 275 275 274 275 275 272 272 270 270 273 273 274 274 274 275 275 276 277 277 276 280 279 277 276 276 276 281 283 284 285 286 287 288 288 289 289 289 289 290 290 291 292 292 293 293 294 294 295 297
280 279 279 278 278 277 277 277 277 277 277 277 276 276 276 276 276 276 275 275 275 274 275 275 275 275 275 274 275 275 274 274 274 274 274 275 275 275 274 274 274 274 272 272 269 272 273 273 274 274 275 275 276 276 276 276 278 278 276 275 275 279 280 279 281 282 284 285 285 286 287 288 288 289 289 289 289 290 291 291 291 292 293 293 295
279 279 278 278 277 277 277 277 276 276 276 276 276 275 275 275 275 275 275 274 274 274 273 274 275 275 274 274 274 274 274 273 273 274 273 274 274 274 273 274 273 273 273 272 271 271 275 274 273 273 274 274 275 274 274 275 276 278 275 275 275 278 276 275 278 280 282 283 284 286 287 287 288 288 287 287 288 289 289 289 290 290 291 291 292
278 278 278 278 277 277 277 277 276 276 276 275 275 275 275 274 275 274 274 273 273 273 273 273 274 274 273 273 273 273 274 273 274 273 273 273 273 274 274 273 273 272 272 271 270 270 272 274 274 273 273 274 273 274 273 273 274 274 276 275 275 274 275 275 275 278 280 282 283 285 286 287 287 287 287 287 287 287 288 288 289 288 289 290 291
278 278 278 277 277 277 276 276 276 275 275 275 274 274 274 274 273 274 273 272 272 272 272 272 272 274 273 273 273 273 274 273 273 272 273 272 272 272 272 273 272 272 272 271 270 270 269 272 272 273 272 274 271 274 272 272 273 274 273 274 274 274 274 274 274 275 279 281 283 284 285 286 286 287 287 286 286 287 287 288 287 287 288 289 289
277 277 277 277 277 277 276 276 275 275 275 274 274 273 273 273 272 272 272 272 272 272 271 271 272 272 272 272 272 272 273 272 272 272 272 272 272 272 271 272 271 271 272 272 270 269 269 269 272 271 271 272 272 272 273 273 273 273 272 272 273 274 275 274 274 275 278 281 283 284 284 285 285 285 285 285 286 286 286 287 287 287 287 287 288
277 277 277 277 277 277 276 275 275 275 274 273 273 273 273 272 272 272 271 271 271 271 272 272 272 272 272 272 272 272 272 271 271 271 272 272 271 271 271 271 271 271 271 271 271 270 270 268 270 271 272 271 272 273 273 273 272 272 272 272 273 273 273 274 274 274 277 281 282 283 283 284 284 284 284 285 285 285 286 286 286 286 286 286 286
277 277 277 276 276 276 276 276 275 274 273 273 273 273 272 272 272 272 271 271 271 271 272 272 275 272 272 272 271 271 271 271 271 271 271 271 271 271 271 271 271 271 272 272 271 272 271 270 270 272 273 272 273 272 272 271 271 272 272 272 272 273 273 274 274 275 278 280 280 281 281 282 283 283 284 285 285 285 286 286 286 286 285 285 284
277 277 277 277 276 276 276 276 274 273 273 273 273 272 272 271 271 271 271 271 272 271 272 272 271 272 272 271 272 271 271 270 270 271 271 270 271 271 270 271 271 271 271 271 272 272 272 271 271 270 272 272 272 272 272 272 271 270 271 272 272 273 273 273 274 275 276 276 275 276 278 279 280 283 284 284 285 285 285 285 285 285 284 283 283
277 277 277 277 276 276 275 274 274 273 274 273 272 271 270 270 271 272 272 272 272 271 272 272 272 271 272 271 271 272 271 271 270 270 270 271 271 271 271 271 271 271 271 271 272 272 271 271 271 271 271 272 272 270 272 273 272 272 270 270 271 273 273 273 273 274 275 275 277 280 279 279 281 280 282 283 284 284 284 284 284 283 283 282 283
277 277 277 276 275 275 275 275 274 273 273 272 271 270 270 271 271 271 272 271 271 271 271 271 272 271 272 272 272 272 271 271 271 271 271 271 272 271 272 271 271 271 270 271 271 271 271 270 270 270 270 270 271 272 272 272 271 271 272 271 270 271 272 273 273 273 274 275 274 275 278 279 279 280 281 281 282 283 283 282 281 281 281 282 283
277 277 276 276 275 274 274 274 273 273 273 272 271 271 271 271 271 272 272 271 270 269 270 270 270 271 270 270 271 271 272 275 276 276 276 276 272 268 270 271 270 271 271 270 269 269 268 268 268 270 270 269 270 270 269 270 270 270 272 272 271 272 273 273 273 275 275 274 275 275 276 277 277 277 276 276 276 279 278 280 280 279 280 282 284
276 275 275 275 275 274 273 273 273 273 273 272 274 277 275 272 272 272 272 271 269 269 269 269 269 270 270 269 270 274 275 275 275 275 275 276 276 274 271 271 269 268 268 268 267 267 268 268 268 269 268 269 269 270 270 271 272 273 272 272 271 272 273 272 273 274 276 275 275 274 275 277 276 275 275 275 276 277 276 276 276 278 281 283 284
275 275 275 274 274 274 274 273 272 272 272 272 277 279 279 278 274 272 271 271 271 269 269 268 268 269 268 269 268 272 273 273 272 273 274 275 274 274 275 275 275 272 269 268 268 270 269 268 269 269 269 269 270 272 272 272 273 272 272 272 272 272 271 270 269 273 277 276 274 274 274 275 275 274 274 274 275 275 275 275 280 281 282 283 284
275 275 274 274 274 274 273 273 272 272 272 275 279 280 280 279 277 273 272 271 271 271 270 269 269 269 269 268 269 269 269 270 270 270 271 273 273 274 275 275 275 276 276 274 272 271 271 270 270 270 270 270 271 272 272 272 272 273 273 273 273 272 271 271 271 270 275 277 274 272 271 274 275 274 273 274 274 275 275 279 281 282 283 283 283
274 274 274 274 274 273 273 272 272 272 271 277 279 281 281 281 281 276 272 272 272 272 271 270 269 269 268 269 268 269 268 272 271 269 267 268 272 274 275 275 276 276 277 277 278 276 275 272 271 271 271 272 271 272 273 273 274 272 272 272 272 271 271 270 271 271 272 274 272 270 270 272 273 272 272 273 274 275 275 278 280 282 282 283 283
274 274 274 273 273 273 272 272 272 271 271 276 280 281 281 281 281 278 273 274 273 272 271 271 270 269 268 268 267 267 267 267 268 268 268 268 269 269 270 271 272 273 276 277 277 277 277 275 273 272 273 274 272 273 274 275 272 270 270 269 270 269 269 269 270 270 271 273 270 269 268 270 272 272 271 273 275 275 275 278 281 281 282 282 282
274 274 274 273 273 272 272 272 271 271 270 276 280 281 281 281 281 279 274 274 273 272 271 270 269 268 268 268 267 267 267 267 268 269 269 269 270 270 271 271 272 272 273 273 274 274 274 274 274 274 274 275 274 273 273 273 272 271 271 270 270 269 269 270 269 270 270 272 271 270 267 271 273 272 272 274 274 274 275 278 279 280 281 281 281
274 274 273 273 273 272 272 271 270 270 270 277 279 281 281 281 281 275 274 274 273 271 270 269 268 268 268 268 267 267 267 267 270 274 274 273 273 272 272 273 273 274 274 276 277 277 275 275 275 274 274 273 275 273 273 272 271 272 271 269 268 267 266 266 266 268 269 272 273 270 269 269 273 271 271 272 273 272 273 273 277 279 280 280 280
274 273 273 273 272 272 271 270 270 270 269 275 279 280 280 281 280 273 273 272 271 270 268 268 267 268 268 268 268 267 267 267 271 274 275 276 274 273 273 272 273 273 273 273 274 276 276 276 275 274 274 274 274 274 274 274 273 272 268 266 265 267 265 264 265 266 266 268 269 270 268 266 269 269 268 270 271 271 271 272 273 276 278 279 279
273 273 273 272 272 271 271 270 270 269 268 272 278 280 280 281 278 272 273 271 270 269 267 268 268 268 268 271 271 268 268 268 273 275 276 276 274 274 273 273 271 269 269 270 271 272 273 272 271 271 271 271 271 271 272 273 273 272 267 264 266 266 264 264 262 263 264 265 267 270 266 266 268 269 267 269 269 270 270 271 272 273 276 276 277
274 273 272 271 270 270 270 270 271 269 268 270 277 279 280 280 278 272 272 269 268 267 267 266 268 268 268 270 272 272 271 271 275 276 277 277 275 274 272 271 270 268 268 270 269 268 267 265 264 265 266 267 267 267 267 271 272 270 268 267 267 265 263 263 263 263 262 263 267 269 265 266 267 268 267 265 264 268 270 271 271 271 272 272 272
Wind_Speed
5 4 5 4 4 4 4 3 4 3 4 4 3 5 5 4 4 3 3 6 6 5 4 5 6 6 5 5 6 7 7 8 8 8 7 7 8 13 19 20 20 20 20 21 20 20 20 20 20 20 20 19 19 19 19 18 19 19 18 18 17 13 13 12 13 10 6 4 3 2 4 5 4 4 5 6 6 7 8 8 10 6 7 4 6
6 6 6 6 6 7 6 5 5 4 5 6 4 5 6 5 3 5 6 7 7 6 6 6 5 6 6 7 7 7 7 8 8 8 7 7 8 9 19 19 22 21 21 20 21 20 21 21 20 20 20 19 19 19 19 19 19 19 20 19 18 17 15 13 15 14 9 4 4 3 4 4 3 4 5 6 6 7 7 8 8 10 9 10 7
6 6 6 6 6 7 7 6 7 6 5 6 6 6 6 6 6 6 6 7 7 6 6 6 7 7 7 8 7 8 8 8 8 8 8 8 7 8 11 17 20 21 22 22 21 21 21 21 21 20 20 20 20 19 20 19 19 19 19 19 19 19 19 19 17 14 13 12 11 10 8 6 6 5 5 6 7 8 9 8 8 9 9 10 11
7 7 7 7 6 7 7 7 7 7 7 7 7 7 7 7 7 6 6 7 6 6 6 6 7 7 7 8 8 8 7 8 8 8 8 8 8 8 8 10 15 20 21 22 22 22 21 22 21 21 21 20 20 20 19 20 19 19 19 19 19 19 19 19 20 19 17 14 12 11 12 11 9 7 6 6 7 9 10 11 9 9 9 10 9
8 8 8 8 7 8 8 7 6 8 8 9 9 7 6 6 7 5 6 7 8 6 5 6 7 6 7 7 8 8 7 8 8 8 9 8 8 8 8 9 9 13 18 20 21 22 22 22 22 21 21 21 20 20 20 19 19 18 19 19 19 19 20 19 19 18 18 18 18 18 16 14 12 12 10 8 9 10 10 10 9 10 12 13 13
7 8 7 8 8 9 9 7 6 8 9 7 8 6 7 8 5 6 6 7 7 5 6 7 6 7 8 7 7 6 8 9 8 8 8 8 7 8 7 8 8 8 9 14 19 21 22 22 22 22 21 21 21 21 19 19 19 19 19 19 19 19 19 19 19 19 19 18 18 18 18 18 15 13 13 14 12 11 11 12 11 11 11 11 13
6 8 7 7 8 8 8 6 5 6 8 7 8 7 8 8 5 6 5 6 6 6 6 6 7 8 7 7 7 7 8 8 8 8 8 7 8 7 7 7 8 8 8 8 10 17 20 22 22 23 22 22 21 21 20 19 20 20 19 18 18 19 19 19 19 20 20 19 19 19 19 19 19 19 16 13 13 16 16 17 17 14 13 12 10
7 7 8 7 7 8 7 6 6 7 7 7 7 8 7 8 7 4 6 6 6 7 5 7 7 8 7 7 7 8 8 8 8 8 6 8 8 8 7 8 8 8 8 8 8 10 19 19 21 21 22 22 22 22 22 21 20 20 19 19 20 19 20 20 20 20 21 20 20 20 20 19 20 19 19 19 17 14 13 14 17 16 16 18 15
7 8 9 8 7 7 7 7 6 8 7 7 8 6 7 7 7 7 6 6 7 6 7 7 8 8 7 7 7 8 8 7 7 6 7 8 7 7 8 8 8 7 7 8 8 8 12 18 18 19 20 21 22 22 22 22 21 21 21 21 20 21 21 22 22 21 21 21 22 21 21 20 20 20 20 20 20 19 18 17 15 16 17 16 16
8 8 9 8 7 8 7 7 6 7 8 8 8 7 7 7 9 8 7 7 7 7 7 7 7 8 8 8 8 8 7 7 7 7 8 8 8 8 6 6 8 7 7 7 8 8 8 11 15 15 17 19 21 22 22 23 22 21 21 21 20 19 18 18 19 19 19 20 20 21 21 21 21 21 20 20 20 20 20 20 19 18 18 18 18
8 7 9 8 8 8 7 6 6 8 8 8 8 8 8 8 8 7 7 7 6 5 5 7 8 8 8 7 7 8 6 7 7 8 7 6 7 6 6 8 6 7 8 7 7 8 9 8 8 8 9 17 19 20 21 22 22 21 22 22 21 20 19 19 19 19 20 20 21 21 21 21 21 20 20 20 20 20 20 20 20 20 19 19 19
8 7 9 8 8 8 9 8 7 8 9 10 8 7 8 9 8 7 8 8 8 6 5 6 8 9 8 7 6 7 8 7 8 7 6 7 6 6 8 6 7 7 8 7 7 8 8 8 7 8 7 10 16 18 19 20 19 21 22 23 22 21 20 19 19 19 20 20 21 21 22 22 22 22 21 20 20 21 21 20 20 20 20 20 19
8 8 9 9 9 8 8 8 7 9 9 8 6 6 6 6 6 7 9 10 8 7 5 3 8 7 6 6 6 5 6 8 8 7 7 6 6 8 7 8 8 8 7 7 7 8 8 8 8 7 8 7 9 13 16 17 17 20 23 23 23 22 21 19 19 19 20 20 21 21 22 22 23 23 22 22 21 20 20 20 21 20 20 20 20
8 8 8 9 9 8 8 7 8 8 8 6 7 7 7 6 4 9 7 9 6 6 6 1 4 5 6 2 3 3 3 7 8 5 5 6 6 8 7 7 8 7 7 7 7 8 8 8 7 8 8 8 7 8 9 10 11 18 22 24 24 23 22 20 19 19 21 21 22 22 22 23 23 23 22 22 22 21 21 20 19 20 20 20 20
8 8 9 8 9 9 8 7 6 6 9 9 8 9 7 7 6 6 7 4 6 6 8 4 3 1 1 5 1 0 2 4 3 5 5 5 6 8 7 8 8 6 6 6 7 8 8 7 8 8 8 8 8 7 8 8 11 16 19 22 23 23 23 22 21 22 22 22 22 23 24 24 24 23 23 22 22 22 22 22 21 20 19 20 21
7 7 8 8 8 9 7 8 7 6 8 9 8 8 7 6 5 5 4 8 5 7 7 7 4 2 1 1 1 2 2 3 3 3 2 4 6 6 6 6 6 7 7 7 7 7 8 7 8 7 7 8 8 7 7 7 12 11 14 17 19 22 23 22 23 23 23 23 24 24 25 25 25 24 24 23 23 22 22 21 21 22 21 20 19
7 7 8 8 7 7 8 8 9 7 8 9 8 6 5 4 4 5 4 8 6 4 8 7 9 4 5 2 1 3 1 2 3 2 3 4 5 5 6 7 7 6 6 7 7 7 7 8 7 7 8 8 8 7 8 8 8 8 11 15 19 21 22 22 23 24 24 25 25 25 25 25 24 24 24 24 23 23 23 22 22 22 22 22 21
6 7 7 7 8 8 8 9 8 7 7 7 6 6 6 6 4 5 7 5 9 6 5 6 8 9 7 4 1 3 1 1 3 2 5 1 2 4 4 8 6 7 5 6 6 7 6 7 7 8 7 7 7 8 7 8 8 8 9 13 23 22 22 22 23 23 24 25 26 25 25 25 24 24 24 24 24 24 23 23 22 22 22 23 22
6 6 7 7 8 8 8 8 8 7 6 7 7 7 6 5 4 7 5 4 5 7 5 1 3 7 7 8 9 6 3 3 0 0 4 5 3 3 4 8 8 7 7 8 7 8 7 5 7 7 7 6 7 7 7 8 10 12 19 23 24 24 23 23 23 23 24 24 25 25 25 25 25 25 25 25 25 25 24 24 23 23 23 22 22
7 7 7 7 8 8 7 7 8 6 6 7 7 6 6 6 6 6 6 6 6 8 5 3 6 1 3 6 5 5 5 6 2 1 1 2 5 4 1 4 4 5 4 6 8 8 8 8 7 7 6 5 6 7 6 7 7 9 10 23 24 24 24 24 23 23 23 24 24 24 25 25 25 25 25 25 25 25 25 25 25 24 23 23 22
7 7 6 6 6 7 7 7 8 7 6 7 6 6 7 7 6 7 7 7 6 4 7 5 5 2 3 4 5 5 4 4 3 3 2 1 5 4 8 1 1 3 5 3 5 8 7 6 5 6 6 6 6 6 7 7 8 8 12 24 24 24 24 23 23 23 23 23 24 24 24 25 25 25 25 25 25 25 25 25 25 25 24 24 23
6 5 6 5 6 6 7 7 7 6 6 7 7 7 6 7 6 6 6 7 4 6 7 5 6 4 5 3 5 3 5 5 5 4 2 2 1 6 5 9 11 6 4 3 6 7 6 6 6 5 6 6 6 6 7 8 9 10 15 23 23 24 25 24 23 22 23 23 23 24 24 24 25 26 26 26 26 26 26 26 25 25 25 24 24
5 5 5 5 6 5 6 6 5 5 6 6 6 7 6 7 6 6 6 7 6 7 6 5 6 6 6 6 6 5 3 2 1 2 2 1 3 4 5 3 4 8 3 6 8 6 5 5 3 4 5 5 5 6 7 8 10 13 20 22 23 22 22 23 23 23 23 24 24 25 25 26 26 27 27 27 26 26 25 25 25 25 25 25 25
5 6 5 4 5 5 5 5 6 6 7 6 6 6 6 6 6 6 6 5 5 6 6 6 6 6 5 4 5 5 5 5 1 2 4 2 1 4 5 5 4 4 6 5 5 3 8 6 3 3 4 4 4 5 6 7 6 15 14 15 19 20 21 23 23 24 25 25 25 26 26 26 26 26 25 25 25 25 25 25 25 25 25 25 25
5 6 4 4 5 6 6 6 6 6 6 6 5 5 5 6 6 6 5 5 5 6 7 5 5 6 6 3 5 5 5 2 3 3 2 2 2 4 2 1 4 7 3 2 2 4 6 3 2 4 4 3 5 7 7 7 7 14 17 8 18 18 20 22 23 25 25 25 25 25 25 25 25 24 25 25 25 25 25 25 25 25 25 25 25
7 6 6 4 4 4 5 6 5 5 5 6 5 4 5 6 5 6 6 4 5 6 6 5 5 4 4 6 5 5 4 4 3 5 4 4 4 3 5 3 3 6 4 2 2 4 4 1 4 3 4 4 4 5 6 7 8 15 17 10 11 18 20 21 23 23 23 24 24 24 24 24 25 25 25 26 27 27 26 26 26 26 26 25 25
7 6 5 5 5 5 5 6 5 5 5 6 6 6 5 6 6 6 5 4 5 5 5 5 6 5 5 5 5 5 5 4 5 4 3 4 3 1 4 8 7 3 4 3 3 4 6 4 1 3 4 4 8 8 8 7 8 14 14 9 9 17 20 22 23 23 23 23 23 24 24 25 25 26 25 25 25 26 26 25 25 25 25 26 26
6 6 4 6 6 6 5 5 5 5 5 5 6 6 5 7 6 5 6 2 6 6 4 5 5 5 4 3 5 4 3 4 4 4 4 3 4 3 3 3 4 8 7 6 2 4 3 1 3 2 4 6 7 7 8 9 7 14 11 8 9 11 19 23 24 23 23 23 23 23 23 23 24 24 24 25 25 25 25 25 25 25 24 25 25
7 5 6 4 5 6 6 5 5 5 5 5 5 5 5 6 6 5 6 4 5 5 4 5 4 4 4 4 4 5 3 3 4 4 4 3 4 3 2 2 1 1 4 6 10 2 2 3 2 3 5 9 7 5 8 6 9 12 9 9 10 9 16 23 24 23 23 23 23 23 23 23 23 23 24 24 24 25 25 25 25 26 26 26 26
7 6 6 6 5 5 6 5 5 4 5 5 5 5 6 6 5 5 4 4 5 4 4 4 4 4 3 4 3 5 3 4 4 3 3 3 4 3 2 1 0 2 2 5 9 3 6 1 1 3 5 7 6 6 6 6 12 14 10 10 10 10 20 22 22 23 23 24 23 23 23 23 23 23 23 24 24 25 25 25 25 26 26 27 27
8 7 7 6 6 5 5 5 5 5 4 5 5 5 5 7 5 6 4 5 6 5 3 4 3 4 4 4 3 4 3 3 3 3 3 3 3 2 2 1 2 1 2 3 5 5 4 4 2 4 7 5 7 8 5 6 10 14 11 10 9 16 22 16 21 22 22 23 23 23 23 23 22 22 22 22 22 23 23 24 24 24 25 26 26
7 7 7 7 7 7 5 6 5 5 5 4 5 5 6 6 5 6 4 5 5 4 3 3 3 4 4 4 3 3 2 2 3 2 2 2 2 2 2 1 2 2 1 3 6 15 9 4 7 3 5 9 8 8 9 7 8 14 9 10 12 17 10 9 16 21 22 23 23 23 23 23 22 22 22 22 22 22 22 22 23 23 24 24 24
8 8 7 7 7 6 6 6 6 5 5 5 4 5 6 6 5 5 4 5 5 3 3 4 3 4 3 3 2 2 1 2 1 1 2 2 2 2 1 1 1 2 1 2 6 12 14 1 4 6 7 9 8 7 10 9 8 9 9 9 10 9 9 8 8 15 21 23 23 23 23 23 23 22 22 22 22 21 21 22 23 24 24 24 24
7 8 8 7 6 7 6 6 5 5 5 5 4 5 6 6 4 4 5 4 5 3 3 3 3 2 2 2 2 2 1 1 1 1 1 2 1 1 2 0 2 2 2 2 4 7 15 13 6 6 6 8 11 6 7 10 11 9 11 10 9 8 9 9 8 8 19 22 23 23 23 23 23 23 23 22 21 21 21 22 22 23 24 25 24
6 7 8 7 7 7 6 6 6 6 6 6 5 5 5 5 6 4 4 4 4 3 3 3 1 1 1 0 2 1 1 1 1 1 0 1 1 1 1 2 1 1 1 2 4 8 11 13 8 9 8 8 8 9 8 7 9 9 11 10 10 9 7 8 9 7 15 21 23 23 24 24 23 23 23 22 21 21 22 23 24 25 24 24 24
8 6 6 7 6 7 7 6 6 6 6 5 5 4 5 5 5 5 4 4 3 3 3 1 1 0 0 0 2 1 1 1 2 1 1 1 1 2 2 2 1 2 3 3 4 6 8 12 10 8 8 9 9 7 7 8 8 10 9 10 9 9 9 8 8 8 12 21 23 24 24 24 23 23 23 23 23 23 23 24 25 25 24 23 23
7 7 6 6 7 7 7 7 6 6 6 6 6 5 4 4 5 5 4 3 3 3 2 1 1 1 0 1 2 1 1 1 2 1 1 2 2 2 3 2 2 3 3 4 5 5 8 10 11 9 10 10 9 8 7 8 10 9 8 9 9 9 9 8 8 9 14 20 20 22 22 22 23 23 22 23 24 24 25 26 26 25 24 23 22
7 7 8 7 7 7 6 7 6 6 5 5 6 6 5 5 5 4 4 4 3 3 2 1 1 1 1 1 1 1 1 1 2 2 2 3 2 3 3 3 3 2 3 4 4 5 7 9 10 12 10 11 12 9 7 8 10 12 10 9 7 7 8 9 8 8 8 8 8 9 12 15 17 22 23 22 24 25 26 26 25 24 23 22 23
9 9 7 7 6 7 6 6 6 6 6 6 5 5 5 5 5 5 4 4 3 2 2 1 1 1 1 1 1 1 1 1 2 2 3 3 3 3 3 3 2 2 3 4 5 7 8 9 10 10 11 10 10 13 10 9 13 10 11 11 9 7 7 9 11 9 8 10 11 17 16 16 19 17 19 22 24 26 26 25 24 24 22 22 23
9 9 9 8 6 5 6 6 6 6 6 6 5 5 5 5 5 4 4 4 3 2 2 1 1 0 1 1 1 2 1 2 2 3 3 3 3 3 2 1 2 2 2 4 6 6 7 8 9 10 9 11 9 9 9 9 10 9 7 10 15 13 11 9 8 12 11 10 10 8 9 12 12 14 17 19 22 24 25 23 23 23 22 22 22
7 7 7 8 8 7 5 6 6 6 7 6 6 6 6 5 5 5 4 4 3 3 1 0 1 1 1 2 2 2 2 5 7 7 6 5 2 2 2 1 2 2 3 3 3 4 5 5 7 8 9 9 9 10 11 9 12 13 13 11 12 11 10 11 11 9 10 11 10 8 7 7 8 8 9 10 10 15 16 21 18 20 20 21 23
7 6 7 7 7 8 8 6 6 6 5 4 7 11 9 6 6 5 4 3 3 2 2 1 1 1 2 2 3 5 6 6 7 7 7 7 7 5 3 2 3 2 3 3 4 4 5 7 7 8 9 9 9 10 11 11 10 11 11 11 12 12 12 12 10 6 7 10 10 10 8 7 8 10 9 10 9 10 9 10 9 14 20 24 23
8 8 7 8 7 7 9 9 9 6 6 5 12 13 13 12 7 6 5 4 3 3 3 3 3 3 3 3 2 3 3 5 4 8 8 8 7 8 8 8 6 4 3 5 5 5 6 7 7 7 9 10 10 9 11 12 11 10 11 11 11 11 10 11 11 9 5 7 10 13 13 6 7 10 9 9 9 9 9 10 20 23 23 23 23
8 7 7 8 7 7 7 7 8 7 6 9 14 14 14 14 11 6 6 5 4 3 3 3 3 3 3 3 2 2 2 2 3 2 4 8 8 8 8 8 7 8 9 6 6 5 5 7 8 7 9 10 9 10 12 13 12 12 12 13 14 13 13 12 12 13 10 10 13 13 13 6 5 7 9 8 8 9 11 17 22 22 23 24 24
7 9 9 8 7 7 7 8 8 7 6 11 15 15 14 14 15 10 5 5 4 4 4 4 4 4 4 4 3 3 2 6 4 3 3 4 8 11 10 10 10 11 11 13 14 10 7 8 9 10 8 10 12 11 12 14 15 15 14 12 12 12 12 13 12 14 14 11 11 9 10 9 6 7 9 10 9 9 10 14 21 23 24 24 24
8 7 6 8 8 8 9 9 8 6 7 11 16 15 15 15 14 11 6 7 6 5 6 5 4 5 4 4 4 4 3 3 3 4 4 4 6 7 8 7 7 11 14 16 16 17 13 10 10 11 11 11 13 14 13 14 14 13 12 12 13 13 12 13 15 14 13 10 10 10 10 8 7 9 10 9 7 7 8 16 23 22 23 24 23
10 10 10 10 9 8 8 6 7 7 7 12 15 16 15 15 15 11 6 6 5 6 6 4 4 4 4 4 4 5 4 4 5 5 5 7 8 8 8 8 10 9 8 8 9 8 8 7 9 10 10 9 10 13 13 12 12 11 11 13 13 12 12 11 10 10 11 9 10 8 10 9 10 11 10 10 9 11 10 14 21 24 23 22 22
6 5 5 5 8 9 8 8 7 8 7 15 16 15 15 15 15 6 6 6 6 5 6 4 4 4 4 5 5 5 5 5 8 11 9 7 7 9 8 9 8 6 6 5 6 10 10 8 8 9 10 13 17 13 13 12 10 9 8 8 7 7 9 8 8 8 9 8 8 11 10 11 11 12 12 11 13 13 12 11 18 21 22 22 23
9 10 10 10 9 9 10 9 9 8 7 13 16 16 15 16 11 5 6 5 5 5 5 4 4 5 5 5 6 6 6 6 10 11 11 11 8 7 8 8 5 1 1 3 8 12 10 10 12 14 15 15 14 15 15 17 13 11 7 7 7 7 9 9 9 9 11 11 9 9 9 11 10 11 12 10 11 13 12 10 9 16 21 23 23
11 11 9 8 7 8 10 12 11 10 9 11 17 16 17 17 10 7 6 5 5 5 5 5 5 5 6 12 10 7 7 7 12 12 12 10 7 7 8 3 1 3 3 3 1 1 5 8 10 11 12 11 12 13 14 15 15 11 6 7 9 8 8 8 11 10 12 10 7 9 9 9 12 11 12 10 11 7 10 9 10 12 18 18 22
9 7 6 7 7 7 8 10 9 10 8 10 16 16 17 17 11 6 7 5 6 6 5 6 5 6 6 8 14 11 9 10 14 13 13 10 7 5 2 1 4 3 4 1 0 2 2 4 5 6 6 8 7 6 7 15 14 11 8 7 6 6 7 7 8 9 11 7 6 11 10 10 12 12 11 11 10 8 6 10 12 10 9 10 12
Wind_Direction
62 59 73 77 84 82 67 61 67 72 91 64 77 88 86 84 75 79 71 56 48 37 58 49 40 37 45 46 43 42 42 47 45 46 44 44 39 34 38 39 39 37 34 32 32 31 32 29 26 24 23 21 20 19 20 18 15 13 12 11 10 13 12 10 0 323 275 264 284 334 343 339 342 336 334 330 330 338 331 325 329 293 287 302 321
65 53 69 70 72 67 64 53 56 51 69 69 48 72 80 71 56 43 54 55 50 34 54 45 35 39 35 43 40 49 56 56 52 50 47 43 40 37 37 38 40 38 37 35 33 33 32 30 26 25 24 23 22 22 22 19 16 15 14 15 12 11 15 14 12 10 321 266 287 300 315 311 309 312 326 334 330 322 320 321 322 338 341 326 339
71 70 68 66 64 75 72 65 55 43 63 67 55 64 62 63 55 62 66 63 55 42 48 53 40 34 33 46 51 57 56 57 57 54 51 45 43 40 35 34 37 35 34 34 35 34 33 30 28 26 24 23 22 23 23 23 20 18 17 16 15 17 18 14 13 13 15 356 335 328 314 295 296 292 302 312 316 322 322 316 318 322 320 322 318
71 72 75 70 67 69 69 74 73 62 57 63 63 62 66 60 56 56 65 67 61 45 35 54 47 38 44 55 59 62 60 61 58 53 51 47 42 41 39 33 31 34 31 31 32 32 32 31 29 28 26 24 23 23 24 23 20 17 17 16 16 18 17 17 15 15 15 12 5 349 351 324 293 292 294 304 311 317 325 329 319 309 305 304 304
79 77 79 75 72 71 69 65 74 80 72 68 66 58 61 59 50 43 50 61 55 42 36 54 49 40 56 56 66 66 65 62 57 53 51 49 46 44 44 39 36 29 27 28 26 30 31 31 29 29 28 27 25 24 22 21 18 18 18 18 18 19 15 15 14 13 12 11 8 5 4 0 334 307 300 300 306 314 317 316 317 308 304 312 310
90 86 80 83 77 71 71 61 61 78 78 69 68 59 59 56 42 52 42 52 55 37 46 47 43 58 58 62 69 66 66 61 59 56 54 50 46 46 39 40 36 34 28 24 24 25 27 29 29 28 28 28 27 24 23 22 21 21 19 18 16 17 16 15 15 14 11 10 7 4 1 0 0 351 333 315 304 302 304 301 312 307 309 310 317
78 92 85 84 82 81 74 73 69 78 79 73 79 69 65 57 37 55 56 51 56 46 50 57 61 63 61 68 72 70 65 68 61 57 53 52 51 44 42 39 33 32 29 26 20 20 22 23 26 26 25 26 28 27 26 25 25 22 20 17 15 18 17 15 15 15 15 13 11 7 4 0 359 357 352 343 328 322 317 310 309 302 296 306 297
84 83 85 78 81 79 74 75 72 72 71 72 69 68 67 63 44 41 69 48 50 46 37 66 68 69 66 70 69 67 67 61 61 58 52 54 48 44 41 38 35 32 27 26 22 15 19 19 19 20 18 19 23 26 25 24 26 24 22 21 20 21 20 19 21 21 17 14 11 9 7 4 360 356 354 352 347 337 326 319 316 319 314 315 303
81 84 87 82 77 79 71 69 72 79 76 71 66 62 64 73 55 42 55 70 55 53 51 62 72 70 73 69 64 67 61 59 56 59 54 52 44 43 40 35 34 31 27 25 22 16 10 14 16 15 12 11 17 20 22 19 20 22 22 23 24 26 27 25 24 21 19 15 12 11 9 6 2 358 354 352 349 346 340 335 329 323 325 324 333
78 84 88 79 77 76 69 65 74 78 75 68 64 58 60 61 67 45 43 59 56 60 70 73 77 76 68 70 65 68 64 61 60 53 53 48 42 39 34 34 33 27 26 24 23 14 11 7 9 10 8 8 12 15 17 17 12 16 16 15 16 22 26 25 24 22 19 16 13 10 8 5 2 359 356 353 350 346 343 340 336 332 329 329 324
75 76 87 84 79 73 73 66 72 78 77 70 62 57 59 54 63 60 55 60 72 57 69 87 81 80 75 69 76 73 69 65 59 55 49 46 44 34 35 31 28 23 21 22 15 16 10 6 5 6 359 3 8 8 11 15 7 9 12 10 7 8 11 14 17 18 14 12 10 8 5 3 1 358 356 353 350 347 344 341 338 336 331 328 325
74 75 82 83 82 76 76 66 67 75 76 70 59 53 56 60 49 58 63 56 45 37 33 76 82 78 83 71 68 79 72 69 60 54 49 40 33 33 35 22 29 19 17 16 13 11 8 3 3 0 360 357 2 6 5 9 2 5 10 6 3 0 1 3 7 11 9 7 6 4 2 359 356 354 353 351 349 347 344 341 338 336 334 329 325
71 78 81 83 80 80 79 72 71 75 76 75 73 69 59 72 78 54 63 64 33 9 8 24 99 76 65 76 59 44 76 73 63 52 46 37 32 38 28 29 21 18 6 10 14 7 6 2 357 355 359 358 356 359 3 5 1 2 8 5 1 359 356 354 357 2 3 2 1 1 359 357 354 350 348 346 345 344 343 342 338 336 333 330 328
76 78 82 86 91 84 76 78 78 80 82 82 70 61 56 50 60 71 43 73 54 13 351 63 32 125 119 83 44 12 52 63 62 43 47 41 40 41 26 27 20 11 360 11 8 7 2 0 355 356 354 355 358 357 359 359 356 358 7 4 359 357 357 353 351 354 357 356 356 356 355 354 351 347 345 343 341 339 339 338 338 336 333 330 328
78 82 87 85 89 89 82 81 74 88 85 69 63 55 48 49 44 91 87 56 81 30 23 34 135 131 133 88 358 355 286 11 21 32 35 41 43 44 32 21 10 6 1 6 6 1 358 357 356 356 352 352 353 357 357 354 353 354 1 3 354 356 356 354 353 353 353 352 352 352 351 349 347 344 342 341 339 336 335 334 333 333 332 331 328
78 84 87 85 90 93 95 85 80 76 88 85 69 64 52 49 52 48 85 75 41 35 28 29 83 117 28 112 184 120 358 328 345 296 349 60 44 45 34 22 5 359 2 5 358 356 352 351 355 352 352 351 350 354 355 356 352 351 349 353 346 359 357 355 353 352 350 349 347 346 344 343 342 341 339 338 336 335 332 331 330 330 330 328 328
81 83 91 92 89 94 92 87 82 73 81 85 82 81 75 73 73 79 58 113 85 78 29 30 41 33 138 97 23 35 183 260 347 291 345 26 10 35 24 15 8 359 3 352 349 355 350 350 350 350 350 353 353 354 356 358 358 358 352 347 353 359 357 352 348 346 345 342 340 339 338 338 338 338 337 336 335 333 332 330 329 329 328 327 325
77 82 85 91 88 86 90 91 88 84 84 94 99 89 75 74 56 87 79 50 113 93 74 29 44 36 44 75 141 161 187 278 75 316 342 82 336 17 27 5 358 357 355 354 354 342 352 346 348 345 348 354 353 357 1 1 4 2 358 350 354 352 350 347 343 341 340 338 337 336 336 336 336 335 334 334 333 332 331 329 328 327 327 326 324
75 79 83 84 88 86 88 91 93 94 96 97 88 85 81 75 64 71 69 85 86 89 86 44 34 39 38 52 60 53 91 109 85 34 349 321 352 6 4 10 346 353 352 349 345 347 342 350 342 342 341 357 358 0 5 3 4 6 1 354 351 347 345 344 343 341 340 339 336 335 335 334 333 333 332 331 330 329 328 327 326 325 324 323 322
84 75 75 81 89 87 91 93 94 91 92 86 94 97 90 69 70 79 74 64 79 102 91 36 99 47 33 65 67 60 59 62 84 142 209 295 311 326 4 10 342 320 342 344 339 343 333 337 345 341 338 358 3 8 6 4 4 1 353 353 350 347 346 345 343 341 340 338 335 334 333 331 330 330 329 328 327 327 326 325 324 322 322 321 320
66 76 73 80 84 95 94 94 93 90 92 92 88 86 88 93 81 73 75 65 68 90 90 74 74 108 81 43 62 62 56 70 61 61 98 357 293 341 320 320 282 293 341 342 336 329 323 324 329 336 340 0 12 7 6 4 3 357 355 355 349 346 343 340 338 338 336 334 332 331 330 329 328 328 327 327 326 325 324 323 322 320 319 319 319
68 71 81 76 85 86 88 91 95 98 94 100 99 91 88 84 85 92 92 88 73 80 93 95 85 70 75 106 70 26 35 24 26 12 14 77 343 312 330 339 343 319 316 337 331 311 312 324 334 336 341 358 1 7 3 8 2 3 355 350 344 341 338 336 337 337 334 332 331 331 330 329 328 327 326 324 322 321 320 319 319 319 318 317 317
90 74 76 84 84 82 92 95 96 99 101 99 98 99 94 94 93 89 83 93 91 94 87 78 85 77 65 72 85 94 125 112 69 46 97 16 351 302 323 314 280 308 296 342 323 306 301 309 317 322 338 4 3 7 11 10 12 355 349 344 340 338 338 338 338 336 334 332 331 329 327 326 324 322 320 319 319 317 317 317 318 317 316 315 315
89 92 82 82 95 93 95 97 96 99 94 98 96 98 98 95 87 87 88 85 93 93 95 91 85 87 81 85 90 95 77 87 134 107 76 43 85 294 315 318 300 228 293 319 290 306 317 318 304 310 338 18 9 7 13 19 356 352 345 339 342 344 344 341 337 333 330 327 325 324 322 321 321 320 318 318 317 317 317 317 316 315 314 314 313
115 113 118 119 121 114 110 107 102 96 103 97 97 97 101 95 92 88 89 87 89 93 90 90 94 91 102 96 100 78 75 72 76 76 71 99 82 358 293 296 282 304 290 321 297 315 282 281 303 323 7 22 14 12 9 7 356 343 347 352 354 346 341 336 329 325 322 321 320 320 320 319 319 319 319 319 318 317 316 315 315 314 313 313 312
146 146 154 136 112 114 112 104 103 105 104 103 102 101 98 96 97 94 88 92 89 88 96 96 83 84 86 76 66 73 64 56 70 68 60 46 25 19 325 309 262 281 295 315 300 2 319 299 332 339 29 36 7 18 14 357 350 340 354 360 344 340 335 329 324 321 320 320 319 319 319 319 318 317 317 315 314 313 313 312 312 312 312 311 312
148 150 144 128 122 115 115 113 114 111 111 108 104 99 98 95 89 93 86 82 86 90 85 88 82 78 68 82 75 58 59 55 61 65 76 72 88 22 33 348 330 259 279 293 283 231 241 300 275 333 53 17 8 5 358 356 341 343 355 348 336 333 330 325 322 322 322 321 320 319 318 317 316 315 314 312 311 310 309 309 308 308 308 308 308
142 136 139 131 131 125 116 116 116 113 111 115 114 108 108 103 96 92 86 71 88 79 79 80 82 83 88 73 67 56 58 49 56 64 66 86 84 65 71 45 355 325 322 300 297 283 257 293 314 35 37 27 12 360 346 345 342 347 354 342 333 325 324 322 322 325 324 323 322 321 319 317 315 313 313 312 310 309 308 309 311 311 312 311 311
140 137 135 131 131 131 125 122 117 117 114 111 112 112 110 105 106 100 93 84 82 79 73 77 72 75 71 74 85 75 47 44 42 41 44 57 69 76 74 116 67 307 324 313 309 312 295 73 328 294 33 3 358 354 340 342 343 346 344 335 326 320 317 321 326 326 326 325 324 323 322 319 318 318 317 316 315 315 314 313 312 311 311 310 310
138 141 137 135 132 131 127 125 124 119 121 119 116 118 112 99 102 95 106 101 92 69 61 77 59 69 70 59 53 57 35 45 39 39 59 75 64 48 52 28 152 155 249 301 294 276 282 1 124 326 355 346 345 345 343 341 344 343 332 326 321 315 318 325 325 325 326 326 326 325 324 323 322 321 318 316 315 314 313 312 311 310 309 309 308
139 143 143 139 138 136 133 132 130 129 125 123 122 115 113 109 101 99 87 87 85 78 51 67 55 71 66 60 46 50 37 38 35 39 52 65 52 47 19 53 351 167 214 255 292 276 118 323 12 26 327 345 342 334 345 347 337 333 325 317 315 315 322 322 323 324 325 326 326 326 325 323 321 320 321 320 319 318 317 316 314 312 311 310 309
146 147 146 148 148 144 145 141 139 137 129 121 120 116 105 101 107 97 92 88 81 80 69 56 61 61 62 58 44 53 21 45 42 41 38 38 65 44 25 16 318 276 216 231 249 276 291 318 317 343 344 337 338 335 333 331 325 323 314 313 311 318 318 314 318 321 323 325 326 327 326 324 324 323 323 322 322 320 319 320 319 318 317 314 311
151 152 153 155 153 150 150 151 147 145 134 124 116 113 104 101 92 98 93 91 93 79 75 50 47 55 54 52 22 20 56 51 33 14 23 11 39 26 20 42 308 296 253 254 275 286 293 57 354 335 341 330 326 343 325 322 321 317 314 308 310 314 314 313 312 314 319 321 324 325 325 325 324 325 324 324 322 320 320 320 321 320 318 316 313
158 157 157 155 154 154 153 151 146 140 130 122 121 112 111 108 98 94 97 96 93 89 83 68 47 49 59 44 342 336 340 72 357 2 7 355 9 33 329 116 274 259 291 296 277 283 292 309 330 330 324 330 315 331 322 321 320 317 314 314 311 309 310 310 308 307 313 318 321 323 324 324 324 324 324 323 321 318 319 320 319 318 316 314 312
163 162 161 158 159 157 152 151 146 140 133 124 121 116 119 119 115 102 105 106 106 101 85 86 73 69 54 30 293 289 304 2 321 315 336 330 322 312 279 278 242 251 247 263 288 291 295 297 323 324 326 318 313 318 321 313 307 309 310 312 311 308 301 302 302 300 306 313 317 320 321 323 323 322 321 321 319 318 318 318 319 318 315 312 312
164 163 157 157 156 159 153 151 146 137 128 122 118 121 125 125 120 118 113 110 114 118 122 121 120 124 193 267 275 277 287 329 305 318 315 290 289 274 271 264 223 248 254 232 240 269 291 295 314 323 317 316 312 314 309 305 306 308 307 302 298 297 297 296 294 294 298 305 312 315 315 316 318 320 319 317 317 318 317 317 318 318 316 314 313
165 155 159 160 161 162 158 153 146 140 137 132 129 128 125 123 123 123 120 114 112 115 133 164 171 163 205 218 256 279 289 313 308 318 297 301 280 270 266 256 245 258 254 252 253 257 280 293 303 311 316 311 310 309 316 316 311 302 300 297 300 297 295 289 287 288 292 299 302 304 305 306 309 313 314 315 316 315 317 317 318 317 316 316 315
160 169 166 170 168 163 155 150 145 141 141 142 142 140 135 125 119 116 117 114 117 126 144 162 167 170 184 241 255 261 292 280 282 286 281 277 278 269 264 260 258 265 255 259 274 288 295 295 304 308 314 316 315 315 323 315 310 310 306 298 291 289 293 296 289 290 290 289 296 292 292 296 295 305 312 313 313 314 315 317 317 317 317 316 314
167 170 173 166 170 156 152 146 148 148 147 146 144 143 135 128 126 124 122 126 130 139 154 165 171 187 211 227 253 273 270 264 266 265 269 278 265 261 254 250 257 237 271 295 307 304 302 303 303 304 308 311 313 313 316 310 307 299 302 305 305 298 287 291 300 296 294 289 284 289 291 295 303 307 308 310 311 312 313 315 316 315 314 314 313
174 174 171 166 158 149 151 151 151 146 148 148 149 146 137 132 130 133 140 143 146 154 169 200 191 203 238 266 266 264 261 273 259 262 255 255 259 243 250 230 243 262 291 299 304 303 302 303 304 308 307 305 302 290 292 301 305 299 294 308 307 306 303 296 292 302 299 293 293 289 286 288 287 290 299 304 305 307 311 312 311 311 311 310 307
178 174 164 155 151 151 152 153 154 157 156 165 161 155 144 143 143 145 147 153 156 169 194 239 281 266 275 269 276 277 276 282 293 298 292 288 263 263 276 230 267 277 282 289 284 291 294 293 293 289 291 292 293 302 306 309 312 310 309 297 288 286 289 294 292 283 285 293 290 286 290 293 300 302 303 298 296 304 305 306 306 304 301 305 310
172 166 160 159 159 160 159 160 157 163 176 170 168 163 159 153 150 148 146 150 155 165 180 232 270 263 251 253 262 280 294 304 304 304 302 301 298 297 265 249 254 262 261 252 273 276 276 282 284 292 294 289 292 293 293 287 287 292 291 292 289 293 295 289 277 269 286 284 296 300 300 306 305 299 293 293 298 302 299 300 294 300 306 311 312
172 172 167 165 168 168 168 168 169 179 183 180 178 182 177 166 152 157 160 162 161 173 192 201 221 236 257 250 238 271 294 304 308 298 301 304 304 297 292 290 281 259 235 256 256 252 262 269 272 281 286 289 289 288 291 294 292 283 281 284 288 294 294 300 301 300 264 298 304 305 299 301 296 289 290 292 298 297 297 291 299 307 311 312 313
177 170 177 179 173 172 172 174 181 183 184 184 186 187 183 178 168 162 159 159 165 180 190 203 214 218 230 238 243 213 223 242 249 276 305 300 295 289 286 279 273 278 280 267 261 264 268 276 284 279 287 286 284 292 296 299 293 294 301 304 304 304 304 303 306 307 321 323 310 304 296 303 285 281 289 292 294 293 292 300 307 311 311 312 314
165 179 186 175 180 176 176 181 190 189 186 192 192 190 189 187 180 166 162 155 173 198 206 206 214 218 215 222 225 232 224 261 278 280 263 274 288 282 272 269 272 274 279 285 288 287 292 292 288 286 280 289 291 294 298 297 304 309 318 319 323 321 318 311 308 309 309 316 299 290 295 310 311 294 290 293 290 287 290 301 309 311 313 313 313
182 182 179 183 183 187 189 190 189 191 188 202 196 194 193 194 194 177 159 164 185 204 213 216 215 213 216 209 222 245 241 234 239 244 246 252 255 261 262 257 254 260 267 272 280 288 289 286 289 292 296 288 290 297 310 322 326 323 323 318 317 312 313 307 309 305 301 302 296 302 295 302 302 296 292 292 291 295 299 307 312 314 313 313 315
184 187 185 187 194 191 191 185 185 196 203 204 200 197 196 197 199 188 149 160 173 210 214 210 212 214 218 218 218 232 238 242 236 235 235 248 247 244 242 239 241 242 242 249 257 261 265 266 269 272 288 310 317 324 325 324 320 319 312 312 320 313 306 302 290 280 284 286 288 294 296 308 304 302 305 317 325 315 309 311 314 312 312 315 316
196 188 200 193 193 195 189 183 186 203 208 207 204 200 197 199 198 172 158 171 186 196 217 205 219 219 217 220 224 232 235 233 252 260 259 252 250 249 248 248 251 249 238 244 288 309 309 303 312 321 324 318 317 318 321 324 321 312 323 325 309 305 305 298 300 307 296 313 333 328 312 312 321 319 319 323 318 310 314 310 309 312 315 315 317
191 197 199 197 196 194 187 184 192 205 203 210 206 203 201 200 194 158 163 162 187 198 206 210 219 224 223 221 224 226 233 236 250 260 260 262 257 253 252 261 265 267 303 305 307 302 308 333 336 333 328 326 327 329 331 331 328 334 333 318 317 323 317 317 316 320 311 322 329 325 329 315 324 320 313 314 317 312 309 309 310 313 315 316 315
197 203 196 196 200 202 193 190 193 196 203 209 207 205 204 204 187 168 170 178 194 202 208 213 217 225 227 232 229 223 228 238 252 257 259 260 259 256 263 270 270 273 276 289 312 343 338 338 335 335 331 331 333 332 331 332 338 345 335 325 329 330 322 322 317 320 309 314 320 357 329 308 317 319 318 316 309 299 306 304 311 313 313 311 311
206 193 189 197 204 212 213 200 186 195 203 205 207 208 206 205 191 161 172 171 174 205 200 210 218 217 232 239 239 234 222 230 248 252 254 258 257 253 177 249 280 296 291 58 154 304 322 330 325 328 316 320 317 309 308 324 331 336 331 322 320 318 309 308 307 309 308 309 335 337 316 316 322 318 324 319 310 299 286 311 309 303 306 305 306